When you browse on this site, cookies collect data to enhance your experience and personalize the content and advertising you see.
Visit our Privacy Policy to learn more. By continuing to use the site, you agree to this use of cookies and data.
  • In Portugal
  • List of Countries
  • For 7 days
  • Water Temperature
  • Weather Map
  • Weather Widgets
  • user-avatar
    Login

    Hourly Weather Wexford

    Today, 25 August, Sunday

    Time Temperature Precipitation Wind Pressure Humidity
    00:00 +15°C° 0 mm 1 mps 760 mmHg 92%
    01:00 +15°C° 0 mm 1 mps 761 mmHg 92%
    02:00 +15°C° 0 mm 1 mps 761 mmHg 93%
    03:00 +15°C° 0 mm 1 mps 761 mmHg 93%
    04:00 +15°C° 0 mm 1 mps 761 mmHg 93%
    05:00 +15°C° 0 mm 1 mps 761 mmHg 94%
    06:00 +15°C° 0 mm 1 mps 761 mmHg 94%
    07:00 +16°C° 0 mm 1 mps 761 mmHg 91%
    08:00 +18°C° 0 mm 2 mps 762 mmHg 88%
    09:00 +19°C° 0 mm 2 mps 762 mmHg 85%
    10:00 +19°C° 0 mm 2 mps 762 mmHg 83%
    11:00 +20°C° 0 mm 2 mps 762 mmHg 81%
    12:00 +20°C° 0 mm 2 mps 762 mmHg 80%
    13:00 +21°C° 0 mm 2 mps 762 mmHg 78%
    14:00 +21°C° 0 mm 2 mps 762 mmHg 77%
    15:00 +21°C° 0 mm 2 mps 762 mmHg 75%
    16:00 +21°C° 0 mm 2 mps 762 mmHg 78%
    17:00 +21°C° 0 mm 2 mps 762 mmHg 80%
    18:00 +21°C° 0 mm 3 mps 762 mmHg 82%
    19:00 +19°C° 0 mm 3 mps 763 mmHg 85%
    20:00 +18°C° 0 mm 3 mps 763 mmHg 88%
    21:00 +16°C° 0 mm 3 mps 764 mmHg 91%
    22:00 +16°C° 0 mm 3 mps 763 mmHg 91%
    23:00 +14°C° 0 mm 3 mps 763 mmHg 91%

    Tomorrow, 26 August, Monday

    Time Temperature Precipitation Wind Pressure Humidity
    00:00 +14°C° 0 mm 3 mps 763 mmHg 91%
    01:00 +13°C° 0 mm 3 mps 763 mmHg 91%
    02:00 +12°C° 0 mm 3 mps 763 mmHg 91%
    03:00 +12°C° 0 mm 2 mps 763 mmHg 91%
    04:00 +12°C° 0 mm 2 mps 763 mmHg 91%
    05:00 +10°C° 0 mm 2 mps 763 mmHg 91%
    06:00 +10°C° 0 mm 2 mps 763 mmHg 90%
    07:00 +13°C° 0 mm 2 mps 763 mmHg 85%
    08:00 +15°C° 0 mm 2 mps 763 mmHg 79%
    09:00 +17°C° 0 mm 2 mps 763 mmHg 73%
    10:00 +18°C° 0 mm 2 mps 763 mmHg 71%
    11:00 +19°C° 0 mm 3 mps 763 mmHg 69%
    12:00 +20°C° 0 mm 4 mps 763 mmHg 67%
    13:00 +20°C° 0 mm 4 mps 763 mmHg 67%
    14:00 +20°C° 0 mm 4 mps 763 mmHg 68%
    15:00 +20°C° 0 mm 4 mps 763 mmHg 68%
    16:00 +19°C° 0 mm 4 mps 763 mmHg 73%
    17:00 +17°C° 0 mm 5 mps 762 mmHg 78%
    18:00 +16°C° 0 mm 5 mps 762 mmHg 84%
    19:00 +15°C° 0 mm 5 mps 762 mmHg 87%
    20:00 +14°C° 0 mm 4 mps 763 mmHg 90%
    21:00 +12°C° 0 mm 4 mps 763 mmHg 94%
    22:00 +12°C° 0 mm 4 mps 763 mmHg 94%
    23:00 +12°C° 0 mm 4 mps 762 mmHg 95%

    Day after tomorrow, 27 August, Tuesday

    Time Temperature Precipitation Wind Pressure Humidity
    00:00 +12°C° 0 mm 4 mps 762 mmHg 95%
    01:00 +12°C° 0 mm 4 mps 762 mmHg 95%
    02:00 +13°C° 0 mm 4 mps 762 mmHg 95%
    03:00 +13°C° 0 mm 4 mps 761 mmHg 95%
    04:00 +13°C° 0 mm 4 mps 761 mmHg 95%
    05:00 +13°C° 0 mm 4 mps 761 mmHg 95%
    06:00 +14°C° 0 mm 4 mps 761 mmHg 96%
    07:00 +14°C° 0 mm 4 mps 761 mmHg 93%
    08:00 +15°C° 0 mm 5 mps 762 mmHg 90%
    09:00 +16°C° 0 mm 5 mps 762 mmHg 87%
    10:00 +16°C° 0 mm 5 mps 761 mmHg 86%
    11:00 +17°C° 0 mm 5 mps 761 mmHg 85%
    12:00 +17°C° 0 mm 5 mps 761 mmHg 83%
    13:00 +17°C° 0 mm 5 mps 761 mmHg 81%
    14:00 +19°C° 0 mm 5 mps 761 mmHg 79%
    15:00 +19°C° 0 mm 5 mps 760 mmHg 77%
    16:00 +17°C° 0 mm 5 mps 760 mmHg 80%
    17:00 +16°C° 0 mm 5 mps 760 mmHg 83%
    18:00 +15°C° 0 mm 4 mps 760 mmHg 86%
    19:00 +15°C° 0 mm 4 mps 760 mmHg 88%
    20:00 +14°C° 0 mm 4 mps 760 mmHg 90%
    21:00 +14°C° 0 mm 3 mps 760 mmHg 92%
    22:00 +14°C° 0 mm 3 mps 759 mmHg 91%
    23:00 +14°C° 0 mm 3 mps 759 mmHg 90%

    28 August, Wednesday

    Time Temperature Precipitation Wind Pressure Humidity
    00:00 +14°C° 0 mm 3 mps 759 mmHg 88%
    01:00 +14°C° 0 mm 4 mps 758 mmHg 90%
    02:00 +14°C° 0 mm 4 mps 758 mmHg 91%
    03:00 +14°C° 0 mm 4 mps 757 mmHg 92%
    04:00 +14°C° 0.6 mm 4 mps 757 mmHg 93%
    05:00 +14°C° 0.6 mm 3 mps 757 mmHg 95%
    06:00 +14°C° 0.6 mm 3 mps 757 mmHg 97%
    07:00 +14°C° 0.2 mm 3 mps 757 mmHg 95%
    08:00 +16°C° 0.2 mm 3 mps 757 mmHg 94%
    09:00 +15°C° 0.2 mm 4 mps 757 mmHg 93%
    10:00 +15°C° 0.7 mm 4 mps 757 mmHg 94%
    11:00 +15°C° 0.7 mm 5 mps 757 mmHg 95%
    12:00 +14°C° 0.7 mm 5 mps 757 mmHg 96%
    13:00 +14°C° 0.4 mm 5 mps 757 mmHg 94%
    14:00 +14°C° 0.4 mm 5 mps 757 mmHg 93%
    15:00 +14°C° 0.4 mm 6 mps 757 mmHg 91%
    16:00 +14°C° 0 mm 6 mps 757 mmHg 89%
    17:00 +14°C° 0 mm 6 mps 757 mmHg 86%
    18:00 +14°C° 0 mm 6 mps 757 mmHg 84%
    19:00 +13°C° 0 mm 6 mps 758 mmHg 86%
    20:00 +11°C° 0 mm 6 mps 758 mmHg 87%
    21:00 +10°C° 0 mm 5 mps 759 mmHg 89%
    22:00 +9°C° 0 mm 5 mps 759 mmHg 89%
    23:00 +9°C° 0 mm 5 mps 760 mmHg 90%

    29 August, Thursday

    Time Temperature Precipitation Wind Pressure Humidity
    00:00 +8°C° 0 mm 4 mps 760 mmHg 91%
    01:00 +8°C° 0 mm 4 mps 760 mmHg 92%
    02:00 +8°C° 0 mm 4 mps 760 mmHg 92%
    03:00 +8°C° 0 mm 4 mps 760 mmHg 93%
    04:00 +8°C° 0 mm 4 mps 761 mmHg 92%
    05:00 +8°C° 0 mm 4 mps 761 mmHg 91%
    06:00 +8°C° 0 mm 5 mps 761 mmHg 90%
    07:00 +10°C° 0 mm 6 mps 761 mmHg 86%
    08:00 +13°C° 0 mm 6 mps 761 mmHg 82%
    09:00 +15°C° 0 mm 7 mps 761 mmHg 78%
    10:00 +15°C° 0 mm 8 mps 762 mmHg 78%
    11:00 +16°C° 0 mm 8 mps 762 mmHg 78%
    12:00 +17°C° 0 mm 9 mps 762 mmHg 77%
    13:00 +17°C° 0 mm 9 mps 762 mmHg 78%
    14:00 +17°C° 0 mm 9 mps 762 mmHg 78%
    15:00 +17°C° 0 mm 9 mps 762 mmHg 78%
    16:00 +17°C° 0 mm 9 mps 762 mmHg 79%
    17:00 +16°C° 0 mm 8 mps 762 mmHg 81%
    18:00 +16°C° 0 mm 8 mps 762 mmHg 82%
    19:00 +15°C° 0 mm 8 mps 762 mmHg 84%
    20:00 +15°C° 0 mm 7 mps 763 mmHg 86%
    21:00 +14°C° 0 mm 7 mps 763 mmHg 88%
    22:00 +14°C° 0 mm 7 mps 763 mmHg 89%
    23:00 +14°C° 0 mm 7 mps 763 mmHg 90%

    30 August, Friday

    Time Temperature Precipitation Wind Pressure Humidity
    00:00 +12°C° 0 mm 7 mps 763 mmHg 91%
    01:00 +13°C° 0 mm 6 mps 763 mmHg 90%
    02:00 +13°C° 0 mm 6 mps 763 mmHg 89%
    03:00 +14°C° 0 mm 6 mps 763 mmHg 87%
    04:00 +13°C° 0 mm 6 mps 763 mmHg 88%
    05:00 +13°C° 0 mm 6 mps 763 mmHg 89%
    06:00 +12°C° 0 mm 5 mps 763 mmHg 90%
    07:00 +14°C° 0 mm 6 mps 763 mmHg 87%
    08:00 +15°C° 0 mm 6 mps 763 mmHg 83%
    09:00 +16°C° 0 mm 6 mps 763 mmHg 79%
    10:00 +16°C° 0 mm 6 mps 763 mmHg 78%
    11:00 +17°C° 0 mm 7 mps 763 mmHg 77%
    12:00 +17°C° 0 mm 7 mps 763 mmHg 76%
    13:00 +17°C° 0 mm 7 mps 762 mmHg 77%
    14:00 +16°C° 0 mm 8 mps 762 mmHg 78%
    15:00 +16°C° 0 mm 8 mps 761 mmHg 79%
    16:00 +16°C° 0.1 mm 9 mps 761 mmHg 82%
    17:00 +15°C° 0.1 mm 9 mps 760 mmHg 85%
    18:00 +14°C° 0.1 mm 10 mps 760 mmHg 88%
    19:00 +14°C° 0.4 mm 10 mps 759 mmHg 90%
    20:00 +14°C° 0.4 mm 11 mps 759 mmHg 93%
    21:00 +14°C° 0.4 mm 12 mps 758 mmHg 95%
    22:00 +14°C° 0.7 mm 11 mps 758 mmHg 95%
    23:00 +16°C° 0.7 mm 10 mps 758 mmHg 95%
    Show more